owner,sensor,date,latitude,longitude,vertical_datum,wind_speed,wind_to_direction,wind_speed_of_gust,qcFlag 
TABS,ioos:station:wmo:42045:1,2012-01-01T00:00:00Z,26.2168,-96.4998,4.0,4.162427177,156.9462686,4.83,'11111222,11111222,11111222' 
TABS,ioos:station:wmo:42045:1,2012-01-01T00:30:00Z,26.2168,-96.4998,4.0,4.206019496,158.375924,4.83,'11111222,11111222,11111222' 
TABS,ioos:station:wmo:42045:1,2012-01-01T01:00:00Z,26.2168,-96.4998,4.0,4.437172523,152.3379591,4.85,'11111222,11111222,11111222' 
TABS,ioos:station:wmo:42045:1,2012-01-01T01:30:00Z,26.2168,-96.4998,4.0,4.119186813,145.3843121,4.64,'11111222,11111222,11111222' 
TABS,ioos:station:wmo:42045:1,2012-01-01T02:00:00Z,26.2168,-96.4998,4.0,4.383754099,144.7512946,4.89,'11111222,11111222,11111222' 
TABS,ioos:station:wmo:42045:1,2012-01-01T02:30:00Z,26.2168,-96.4998,4.0,3.869392717,145.5298992,4.3,'11111222,11111222,11111222' 
TABS,ioos:station:wmo:42045:1,2012-01-01T03:00:00Z,26.2168,-96.4998,4.0,4.221326806,146.0090647,4.82,'11111222,11111222,11111222' 
TABS,ioos:station:wmo:42045:1,2012-01-01T03:30:00Z,26.2168,-96.4998,4.0,4.322337331,143.8462259,4.88,'11111222,11111222,11111222' 
TABS,ioos:station:wmo:42045:1,2012-01-01T04:00:00Z,26.2168,-96.4998,4.0,4.534754679,148.3431182,4.98,'11111222,11111222,11111222' 
TABS,ioos:station:wmo:42045:1,2012-01-01T04:30:00Z,26.2168,-96.4998,4.0,4.858775566,149.5825678,5.37,'11111222,11111222,11111222' 
TABS,ioos:station:wmo:42045:1,2012-01-01T05:00:00Z,26.2168,-96.4998,4.0,4.702265411,147.5945107,5.51,'11111222,11111222,11111222' 
TABS,ioos:station:wmo:42045:1,2012-01-01T05:30:00Z,26.2168,-96.4998,4.0,4.96179403,151.7308043,5.68,'11111222,11111222,11111222' 
TABS,ioos:station:wmo:42045:1,2012-01-01T06:00:00Z,26.2168,-96.4998,4.0,4.436146977,147.7073995,5.23,'11111222,11111222,11111222' 
TABS,ioos:station:wmo:42045:1,2012-01-01T06:30:00Z,26.2168,-96.4998,4.0,4.762457349,145.6094945,5.57,'11111222,11111222,11111222' 
TABS,ioos:station:wmo:42045:1,2012-01-01T07:00:00Z,26.2168,-96.4998,4.0,4.280525669,150.6206514,5.01,'11111222,11111222,11111222' 
TABS,ioos:station:wmo:42045:1,2012-01-01T07:30:00Z,26.2168,-96.4998,4.0,3.589498572,148.7901538,4.22,'11111222,11111222,11111222' 
TABS,ioos:station:wmo:42045:1,2012-01-01T08:00:00Z,26.2168,-96.4998,4.0,2.689274995,148.3788246,3.17,'11111222,11111222,11111222' 
TABS,ioos:station:wmo:42045:1,2012-01-01T08:30:00Z,26.2168,-96.4998,4.0,2.82973497,149.1754246,3.34,'11111222,11111222,11111222' 
TABS,ioos:station:wmo:42045:1,2012-01-01T09:00:00Z,26.2168,-96.4998,4.0,3.036379423,150.3958289,3.37,'11111222,11111222,11111222' 
TABS,ioos:station:wmo:42045:1,2012-01-01T09:30:00Z,26.2168,-96.4998,4.0,3.168911485,144.5046522,3.51,'11111222,11111222,11111222' 
TABS,ioos:station:wmo:42045:1,2012-01-01T10:00:00Z,26.2168,-96.4998,4.0,3.023524434,148.9390296,3.46,'11111222,11111222,11111222' 
TABS,ioos:station:wmo:42045:1,2012-01-01T10:30:00Z,26.2168,-96.4998,4.0,2.0885641,146.9189175,2.53,'11111222,11111222,11111222' 
TABS,ioos:station:wmo:42045:1,2012-01-01T11:00:00Z,26.2168,-96.4998,4.0,1.9349677,158.473781,2.32,'11111222,11111222,11111222' 
TABS,ioos:station:wmo:42045:1,2012-01-01T11:30:00Z,26.2168,-96.4998,4.0,1.682408987,111.9914994,1.88,'11111222,11111222,11111222' 
TABS,ioos:station:wmo:42045:1,2012-01-01T12:00:00Z,26.2168,-96.4998,4.0,2.695366394,93.61652636,3.01,'11111222,11111222,11111222' 
TABS,ioos:station:wmo:42045:1,2012-01-01T12:30:00Z,26.2168,-96.4998,4.0,2.875430403,106.9859111,3.28,'11111222,11111222,11111222' 
TABS,ioos:station:wmo:42045:1,2012-01-01T13:00:00Z,26.2168,-96.4998,4.0,0.691158448,148.6100158,1.13,'11111222,11111222,11111222' 
TABS,ioos:station:wmo:42045:1,2012-01-01T13:30:00Z,26.2168,-96.4998,4.0,0.834865259,316.9413766,1.08,'11111222,11111222,11111222' 
TABS,ioos:station:wmo:42045:1,2012-01-01T14:00:00Z,26.2168,-96.4998,4.0,1.253195914,312.0890638,2.2,'11111222,11111222,11111222' 
TABS,ioos:station:wmo:42045:1,2012-01-01T14:30:00Z,26.2168,-96.4998,4.0,3.586153929,329.5019134,4.02,'11111222,11111222,11111222' 
TABS,ioos:station:wmo:42045:1,2012-01-01T15:00:00Z,26.2168,-96.4998,4.0,3.063396807,328.0737831,3.62,'11111222,11111222,11111222' 
TABS,ioos:station:wmo:42045:1,2012-01-01T15:30:00Z,26.2168,-96.4998,4.0,2.477761086,334.1587142,2.98,'11111222,11111222,11111222' 
TABS,ioos:station:wmo:42045:1,2012-01-01T16:00:00Z,26.2168,-96.4998,4.0,3.232785177,329.3096634,4.0,'11111222,11111222,11111222' 
TABS,ioos:station:wmo:42045:1,2012-01-01T16:30:00Z,26.2168,-96.4998,4.0,8.07093551,326.1129093,10.43,'11111222,11111222,11111222' 
TABS,ioos:station:wmo:42045:1,2012-01-01T17:00:00Z,26.2168,-96.4998,4.0,6.948532219,7.441845081,10.66,'11111222,11111222,11111222' 
TABS,ioos:station:wmo:42045:1,2012-01-01T17:30:00Z,26.2168,-96.4998,4.0,7.269449773,33.38373807,10.74,'11111222,11111222,11111222' 
TABS,ioos:station:wmo:42045:1,2012-01-01T18:00:00Z,26.2168,-96.4998,4.0,7.412185912,47.78838547,10.14,'11111222,11111222,11111222' 
TABS,ioos:station:wmo:42045:1,2012-01-01T18:30:00Z,26.2168,-96.4998,4.0,6.644223055,32.39815376,10.01,'11111222,11111222,11111222' 
TABS,ioos:station:wmo:42045:1,2012-01-01T19:00:00Z,26.2168,-96.4998,4.0,7.426560442,46.30907107,10.92,'11111222,11111222,11111222' 
TABS,ioos:station:wmo:42045:1,2012-01-01T19:30:00Z,26.2168,-96.4998,4.0,6.826023733,52.97868075,11.19,'11111222,11111222,11111222' 
TABS,ioos:station:wmo:42045:1,2012-01-01T20:00:00Z,26.2168,-96.4998,4.0,6.827920621,12.34653315,10.31,'11111222,11111222,11111222' 
TABS,ioos:station:wmo:42045:1,2012-01-01T20:30:00Z,26.2168,-96.4998,4.0,7.737602988,343.7899757,12.45,'11111222,11111222,11111222' 
TABS,ioos:station:wmo:42045:1,2012-01-01T21:00:00Z,26.2168,-96.4998,4.0,6.614295125,26.48729975,9.91,'11111222,11111222,11111222' 
TABS,ioos:station:wmo:42045:1,2012-01-01T21:30:00Z,26.2168,-96.4998,4.0,6.256676434,17.10247852,9.54,'11111222,11111222,11111222' 
TABS,ioos:station:wmo:42045:1,2012-01-01T22:00:00Z,26.2168,-96.4998,4.0,6.953459571,34.21541166,9.96,'11111222,11111222,11111222' 
TABS,ioos:station:wmo:42045:1,2012-01-01T22:30:00Z,26.2168,-96.4998,4.0,6.670629655,17.26666707,9.72,'11111222,11111222,11111222' 
TABS,ioos:station:wmo:42045:1,2012-01-01T23:00:00Z,26.2168,-96.4998,4.0,6.336600035,5.251510115,9.82,'11111222,11111222,11111222' 
TABS,ioos:station:wmo:42045:1,2012-01-01T23:30:00Z,26.2168,-96.4998,4.0,6.140521151,359.2533087,10.13,'11111222,11144222,11111222' 
TABS,ioos:station:wmo:42045:1,2012-01-02T00:00:00Z,26.2168,-96.4998,4.0,5.772806943,1.786595886,10.08,'11111222,11111222,11111222' 
TABS,ioos:station:wmo:42045:1,2012-01-02T00:30:00Z,26.2168,-96.4998,4.0,6.326736916,11.48730084,10.64,'11111222,11111222,11111222' 
TABS,ioos:station:wmo:42045:1,2012-01-02T01:00:00Z,26.2168,-96.4998,4.0,6.481975008,12.83536901,10.11,'11111222,11111222,11111222' 
TABS,ioos:station:wmo:42045:1,2012-01-02T01:30:00Z,26.2168,-96.4998,4.0,6.249039926,15.21466511,9.78,'11111222,11111222,11111222' 
TABS,ioos:station:wmo:42045:1,2012-01-02T02:00:00Z,26.2168,-96.4998,4.0,6.29622903,13.96978799,10.18,'11111222,11111222,11111222' 
TABS,ioos:station:wmo:42045:1,2012-01-02T02:30:00Z,26.2168,-96.4998,4.0,6.194481415,14.39493454,9.39,'11111222,11111222,11111222' 
TABS,ioos:station:wmo:42045:1,2012-01-02T03:00:00Z,26.2168,-96.4998,4.0,6.231035227,14.59355018,10.62,'11111222,11111222,11111222' 
TABS,ioos:station:wmo:42045:1,2012-01-02T03:30:00Z,26.2168,-96.4998,4.0,6.054832781,9.602100424,9.91,'11111222,11111222,11111222' 
TABS,ioos:station:wmo:42045:1,2012-01-02T04:00:00Z,26.2168,-96.4998,4.0,6.16116872,17.37596401,9.37,'11111222,11111222,11111222' 
TABS,ioos:station:wmo:42045:1,2012-01-02T04:30:00Z,26.2168,-96.4998,4.0,6.236537501,11.09348661,10.91,'11111222,11111222,11111222' 
TABS,ioos:station:wmo:42045:1,2012-01-02T05:00:00Z,26.2168,-96.4998,4.0,6.467804883,17.45418092,10.17,'11111222,11111222,11111222' 
TABS,ioos:station:wmo:42045:1,2012-01-02T05:30:00Z,26.2168,-96.4998,4.0,6.525067049,17.2961532,10.19,'11111222,11111222,11111222' 
TABS,ioos:station:wmo:42045:1,2012-01-02T06:00:00Z,26.2168,-96.4998,4.0,6.524944444,19.51771224,10.03,'11111222,11111222,11111222' 
TABS,ioos:station:wmo:42045:1,2012-01-02T06:30:00Z,26.2168,-96.4998,4.0,6.384120926,23.15118831,10.72,'11111222,11111222,11111222' 
TABS,ioos:station:wmo:42045:1,2012-01-02T07:00:00Z,26.2168,-96.4998,4.0,6.961127782,30.94935796,10.68,'11111222,11111222,11111222' 
TABS,ioos:station:wmo:42045:1,2012-01-02T07:30:00Z,26.2168,-96.4998,4.0,6.515596673,29.51555081,11.51,'11111222,11111222,11111222' 
TABS,ioos:station:wmo:42045:1,2012-01-02T08:00:00Z,26.2168,-96.4998,4.0,7.062294245,32.7446884,10.57,'11111222,11111222,11111222' 
TABS,ioos:station:wmo:42045:1,2012-01-02T08:30:00Z,26.2168,-96.4998,4.0,6.734166615,32.01411658,11.03,'11111222,11111222,11111222' 
TABS,ioos:station:wmo:42045:1,2012-01-02T09:00:00Z,26.2168,-96.4998,4.0,6.876408947,38.38623929,10.4,'11111222,11111222,11111222' 
TABS,ioos:station:wmo:42045:1,2012-01-02T09:30:00Z,26.2168,-96.4998,4.0,6.310412031,27.05204378,11.19,'11111222,11111222,11111222' 
TABS,ioos:station:wmo:42045:1,2012-01-02T10:00:00Z,26.2168,-96.4998,4.0,6.576229923,31.94968627,10.87,'11111222,11111222,11111222' 
TABS,ioos:station:wmo:42045:1,2012-01-02T10:30:00Z,26.2168,-96.4998,4.0,6.779970501,27.01829666,11.31,'11111222,11111222,11111222' 
TABS,ioos:station:wmo:42045:1,2012-01-02T11:00:00Z,26.2168,-96.4998,4.0,6.743367111,31.16747561,11.68,'11111222,11111222,11111222' 
TABS,ioos:station:wmo:42045:1,2012-01-02T11:30:00Z,26.2168,-96.4998,4.0,6.871535491,29.84802291,10.43,'11111222,11111222,11111222' 
TABS,ioos:station:wmo:42045:1,2012-01-02T12:00:00Z,26.2168,-96.4998,4.0,6.91716705,33.919511,11.12,'11111222,11111222,11111222' 
TABS,ioos:station:wmo:42045:1,2012-01-02T12:30:00Z,26.2168,-96.4998,4.0,7.20251345,37.55374306,10.63,'11111222,11111222,11111222' 
TABS,ioos:station:wmo:42045:1,2012-01-02T13:00:00Z,26.2168,-96.4998,4.0,7.396553251,44.56148524,10.76,'11111222,11111222,11111222' 
TABS,ioos:station:wmo:42045:1,2012-01-02T13:30:00Z,26.2168,-96.4998,4.0,7.375289825,45.38421307,10.49,'11111222,11111222,11111222' 
TABS,ioos:station:wmo:42045:1,2012-01-02T14:00:00Z,26.2168,-96.4998,4.0,7.308077723,41.89366448,11.28,'11111222,11111222,11111222' 
TABS,ioos:station:wmo:42045:1,2012-01-02T14:30:00Z,26.2168,-96.4998,4.0,6.910028943,36.70376744,10.41,'11111222,11111222,11111222' 
TABS,ioos:station:wmo:42045:1,2012-01-02T15:00:00Z,26.2168,-96.4998,4.0,7.357839357,46.87214429,10.13,'11111222,11111222,11111222' 
TABS,ioos:station:wmo:42045:1,2012-01-02T15:30:00Z,26.2168,-96.4998,4.0,7.04809194,40.7420678,10.37,'11111222,11111222,11111222' 
TABS,ioos:station:wmo:42045:1,2012-01-02T16:00:00Z,26.2168,-96.4998,4.0,7.257616689,46.56292016,10.09,'11111222,11111222,11111222' 
TABS,ioos:station:wmo:42045:1,2012-01-02T16:30:00Z,26.2168,-96.4998,4.0,7.141792492,45.11314089,9.88,'11111222,11111222,11111222' 
TABS,ioos:station:wmo:42045:1,2012-01-02T17:00:00Z,26.2168,-96.4998,4.0,6.676503576,31.2136714,9.56,'11111222,11111222,11111222' 
TABS,ioos:station:wmo:42045:1,2012-01-02T17:30:00Z,26.2168,-96.4998,4.0,6.845472957,33.01656222,9.75,'11111222,11111222,11111222' 
TABS,ioos:station:wmo:42045:1,2012-01-02T18:00:00Z,26.2168,-96.4998,4.0,6.524944444,26.87893937,10.03,'11111222,11111222,11111222' 
TABS,ioos:station:wmo:42045:1,2012-01-02T18:30:00Z,26.2168,-96.4998,4.0,6.61601844,29.81979237,10.01,'11111222,11111222,11111222' 
TABS,ioos:station:wmo:42045:1,2012-01-02T19:00:00Z,26.2168,-96.4998,4.0,6.968048507,31.203203,9.83,'11111222,11111222,11111222' 
TABS,ioos:station:wmo:42045:1,2012-01-02T19:30:00Z,26.2168,-96.4998,4.0,6.294410219,31.61914453,9.38,'11111222,11111222,11111222' 
TABS,ioos:station:wmo:42045:1,2012-01-02T20:00:00Z,26.2168,-96.4998,4.0,6.319533211,27.21353384,9.17,'11111222,11111222,11111222' 
TABS,ioos:station:wmo:42045:1,2012-01-02T20:30:00Z,26.2168,-96.4998,4.0,6.365885641,28.01397281,9.91,'11111222,11111222,11111222' 
TABS,ioos:station:wmo:42045:1,2012-01-02T21:00:00Z,26.2168,-96.4998,4.0,6.408572384,21.31968337,9.86,'11111222,11111222,11111222' 
TABS,ioos:station:wmo:42045:1,2012-01-02T21:30:00Z,26.2168,-96.4998,4.0,6.432993083,9.213170674,9.27,'11111222,11111222,11111222' 
TABS,ioos:station:wmo:42045:1,2012-01-02T22:00:00Z,26.2168,-96.4998,4.0,6.062095347,16.58130752,9.45,'11111222,11111222,11111222' 
TABS,ioos:station:wmo:42045:1,2012-01-02T22:30:00Z,26.2168,-96.4998,4.0,6.177200013,16.26366636,8.69,'11111222,11111222,11111222' 
TABS,ioos:station:wmo:42045:1,2012-01-02T23:00:00Z,26.2168,-96.4998,4.0,6.034310234,14.19720134,8.96,'11111222,11111222,11111222' 
TABS,ioos:station:wmo:42045:1,2012-01-02T23:30:00Z,26.2168,-96.4998,4.0,6.100524568,4.701023553,8.68,'11111222,11111222,11111222' 
TABS,ioos:station:wmo:42045:1,2012-01-03T00:00:00Z,26.2168,-96.4998,4.0,5.454851052,357.5832421,7.7,'11111222,11111222,11111222' 
TABS,ioos:station:wmo:42045:1,2012-01-03T00:30:00Z,26.2168,-96.4998,4.0,4.925413688,347.5719503,7.82,'11111222,11111222,11111222' 
TABS,ioos:station:wmo:42045:1,2012-01-03T01:00:00Z,26.2168,-96.4998,4.0,4.80951141,346.165832,7.56,'11111222,11111222,11111222' 
TABS,ioos:station:wmo:42045:1,2012-01-03T01:30:00Z,26.2168,-96.4998,4.0,4.921077118,345.7659111,7.85,'11111222,11111222,11111222' 
TABS,ioos:station:wmo:42045:1,2012-01-03T02:00:00Z,26.2168,-96.4998,4.0,4.889836398,345.3099367,6.91,'11111222,11111222,11111222' 
TABS,ioos:station:wmo:42045:1,2012-01-03T02:30:00Z,26.2168,-96.4998,4.0,4.924002437,336.9234838,6.69,'11111222,11111222,11111222' 
TABS,ioos:station:wmo:42045:1,2012-01-03T03:00:00Z,26.2168,-96.4998,4.0,5.089174786,342.7398318,6.71,'11111222,11111222,11111222' 
TABS,ioos:station:wmo:42045:1,2012-01-03T03:30:00Z,26.2168,-96.4998,4.0,5.269772291,334.8450197,7.35,'11111222,11111222,11111222' 
TABS,ioos:station:wmo:42045:1,2012-01-03T04:00:00Z,26.2168,-96.4998,4.0,4.559232392,337.4283119,6.44,'11111222,11111222,11111222' 
TABS,ioos:station:wmo:42045:1,2012-01-03T04:30:00Z,26.2168,-96.4998,4.0,4.951979402,348.9394867,6.9,'11111222,11111222,11111222' 
TABS,ioos:station:wmo:42045:1,2012-01-03T05:00:00Z,26.2168,-96.4998,4.0,5.475226023,334.6984701,7.45,'11111222,11111222,11111222' 
TABS,ioos:station:wmo:42045:1,2012-01-03T05:30:00Z,26.2168,-96.4998,4.0,5.326011641,342.5174552,7.55,'11111222,11111222,11111222' 
TABS,ioos:station:wmo:42045:1,2012-01-03T06:00:00Z,26.2168,-96.4998,4.0,5.318966065,345.5194355,7.77,'11111222,11111222,11111222' 
TABS,ioos:station:wmo:42045:1,2012-01-03T06:30:00Z,26.2168,-96.4998,4.0,5.475216891,343.8819408,7.71,'11111222,11111222,11111222' 
TABS,ioos:station:wmo:42045:1,2012-01-03T07:00:00Z,26.2168,-96.4998,4.0,5.144637985,347.8817256,7.74,'11111222,11111222,11111222' 
TABS,ioos:station:wmo:42045:1,2012-01-03T07:30:00Z,26.2168,-96.4998,4.0,5.193197474,345.1607966,7.1,'11111222,11111222,11111222' 
TABS,ioos:station:wmo:42045:1,2012-01-03T08:00:00Z,26.2168,-96.4998,4.0,5.831543535,318.6845628,7.72,'11111222,11111222,11111222' 
TABS,ioos:station:wmo:42045:1,2012-01-03T08:30:00Z,26.2168,-96.4998,4.0,5.877388876,329.4206342,8.18,'11111222,11111222,11111222' 
TABS,ioos:station:wmo:42045:1,2012-01-03T09:00:00Z,26.2168,-96.4998,4.0,5.963958417,327.3223626,8.32,'11111222,11111222,11111222' 
TABS,ioos:station:wmo:42045:1,2012-01-03T09:30:00Z,26.2168,-96.4998,4.0,5.277736257,337.6138019,7.36,'11111222,11111222,11111222' 
TABS,ioos:station:wmo:42045:1,2012-01-03T10:00:00Z,26.2168,-96.4998,4.0,5.411330705,349.4582097,8.27,'11111222,11111222,11111222' 
TABS,ioos:station:wmo:42045:1,2012-01-03T10:30:00Z,26.2168,-96.4998,4.0,5.344127618,357.7477505,8.33,'11111222,11111222,11111222' 
TABS,ioos:station:wmo:42045:1,2012-01-03T11:00:00Z,26.2168,-96.4998,4.0,5.074366956,13.21441723,6.89,'11111222,11111222,11111222' 
TABS,ioos:station:wmo:42045:1,2012-01-03T11:30:00Z,26.2168,-96.4998,4.0,4.339181951,13.45954025,6.45,'11111222,11111222,11111222' 
TABS,ioos:station:wmo:42045:1,2012-01-03T12:00:00Z,26.2168,-96.4998,4.0,4.683769849,25.14225646,6.56,'11111222,11111222,11111222' 
TABS,ioos:station:wmo:42045:1,2012-01-03T12:30:00Z,26.2168,-96.4998,4.0,4.65244022,36.0814045,6.54,'11111222,11111222,11111222' 
TABS,ioos:station:wmo:42045:1,2012-01-03T13:00:00Z,26.2168,-96.4998,4.0,4.345445892,22.31532593,6.48,'11111222,11111222,11111222' 
TABS,ioos:station:wmo:42045:1,2012-01-03T13:30:00Z,26.2168,-96.4998,4.0,4.245303287,27.95312625,5.92,'11111222,11111222,11111222' 
TABS,ioos:station:wmo:42045:1,2012-01-03T14:00:00Z,26.2168,-96.4998,4.0,3.649068374,41.33332533,5.18,'11111222,11111222,11111222' 
TABS,ioos:station:wmo:42045:1,2012-01-03T14:30:00Z,26.2168,-96.4998,4.0,3.60111094,40.94613956,5.31,'11111222,11111222,11111222' 
TABS,ioos:station:wmo:42045:1,2012-01-03T15:00:00Z,26.2168,-96.4998,4.0,3.510911563,51.82411005,4.84,'11111222,11111222,11111222' 
TABS,ioos:station:wmo:42045:1,2012-01-03T15:30:00Z,26.2168,-96.4998,4.0,2.911099449,60.35241641,4.18,'11111222,11111222,11111222' 
TABS,ioos:station:wmo:42045:1,2012-01-03T16:00:00Z,26.2168,-96.4998,4.0,1.83613725,85.3136902,3.42,'11111222,11111222,11111222' 
TABS,ioos:station:wmo:42045:1,2012-01-03T16:30:00Z,26.2168,-96.4998,4.0,1.088117641,126.0277101,2.6,'11111222,11111222,11111222' 
TABS,ioos:station:wmo:42045:1,2012-01-03T17:00:00Z,26.2168,-96.4998,4.0,1.461848145,69.58120131,2.66,'11111222,11111222,11111222' 
TABS,ioos:station:wmo:42045:1,2012-01-03T17:30:00Z,26.2168,-96.4998,4.0,0.814923309,194.2069434,1.52,'11111222,11111222,11111222' 
TABS,ioos:station:wmo:42045:1,2012-01-03T18:00:00Z,26.2168,-96.4998,4.0,0.763216876,148.3927821,1.66,'11111222,11111222,11111222' 
TABS,ioos:station:wmo:42045:1,2012-01-03T18:30:00Z,26.2168,-96.4998,4.0,0.720277724,88.40844253,1.93,'11111222,11111222,11111222' 
TABS,ioos:station:wmo:42045:1,2012-01-03T19:00:00Z,26.2168,-96.4998,4.0,1.040096149,123.2320543,2.56,'11111222,11111222,11111222' 
TABS,ioos:station:wmo:42045:1,2012-01-03T19:30:00Z,26.2168,-96.4998,4.0,1.200666482,60.01800982,2.26,'11111222,11111222,11111222' 
TABS,ioos:station:wmo:42045:1,2012-01-03T20:00:00Z,26.2168,-96.4998,4.0,1.538830725,98.97302655,2.87,'11111222,11111222,11111222' 
TABS,ioos:station:wmo:42045:1,2012-01-03T20:30:00Z,26.2168,-96.4998,4.0,0.601082357,135.674351,3.1,'11111222,11111222,11111222' 
TABS,ioos:station:wmo:42045:1,2012-01-03T21:00:00Z,26.2168,-96.4998,4.0,1.823951754,93.77269571,3.83,'11111222,11111222,11111222' 
TABS,ioos:station:wmo:42045:1,2012-01-03T21:30:00Z,26.2168,-96.4998,4.0,3.132299475,87.80401621,4.32,'11111222,11111222,11111222' 
TABS,ioos:station:wmo:42045:1,2012-01-03T22:00:00Z,26.2168,-96.4998,4.0,3.31651926,111.769699,4.78,'11111222,11111222,11111222' 
TABS,ioos:station:wmo:42045:1,2012-01-03T22:30:00Z,26.2168,-96.4998,4.0,3.233713036,105.239964,4.68,'11111222,11111222,11111222' 
TABS,ioos:station:wmo:42045:1,2012-01-03T23:00:00Z,26.2168,-96.4998,4.0,3.933764101,110.6927954,5.43,'11111222,11111222,11111222' 
TABS,ioos:station:wmo:42045:1,2012-01-03T23:30:00Z,26.2168,-96.4998,4.0,4.246892982,111.5512535,6.01,'11111222,11111222,11111222' 
TABS,ioos:station:wmo:42045:1,2012-01-04T00:00:00Z,26.2168,-96.4998,4.0,5.10844399,128.6426225,7.02,'11111222,11111222,11111222' 
TABS,ioos:station:wmo:42045:1,2012-01-04T00:30:00Z,26.2168,-96.4998,4.0,5.613599558,125.5024209,7.19,'11111222,11111222,11111222' 
TABS,ioos:station:wmo:42045:1,2012-01-04T01:00:00Z,26.2168,-96.4998,4.0,5.956282398,142.5724671,7.59,'11111222,11111222,11111222' 
TABS,ioos:station:wmo:42045:1,2012-01-04T01:30:00Z,26.2168,-96.4998,4.0,5.683836732,148.3795743,7.95,'11111222,11111222,11111222' 
TABS,ioos:station:wmo:42045:1,2012-01-04T02:00:00Z,26.2168,-96.4998,4.0,7.235171042,150.7072323,9.22,'11111222,11111222,11111222' 
TABS,ioos:station:wmo:42045:1,2012-01-04T02:30:00Z,26.2168,-96.4998,4.0,7.799410234,153.5009274,9.74,'11111222,11111222,11111222' 
TABS,ioos:station:wmo:42045:1,2012-01-04T03:00:00Z,26.2168,-96.4998,4.0,7.278495724,165.9258155,9.48,'11111222,11111222,11111222' 
TABS,ioos:station:wmo:42045:1,2012-01-04T03:30:00Z,26.2168,-96.4998,4.0,6.949201393,163.7037661,8.63,'11111222,11111222,11111222' 
TABS,ioos:station:wmo:42045:1,2012-01-04T04:00:00Z,26.2168,-96.4998,4.0,6.827034495,173.2707776,9.56,'11111222,11111222,11111222' 
TABS,ioos:station:wmo:42045:1,2012-01-04T04:30:00Z,26.2168,-96.4998,4.0,6.814961482,177.8137734,8.38,'11111222,11111222,11111222' 
TABS,ioos:station:wmo:42045:1,2012-01-04T05:00:00Z,26.2168,-96.4998,4.0,7.172893419,171.8249413,8.64,'11111222,11111222,11111222' 
TABS,ioos:station:wmo:42045:1,2012-01-04T05:30:00Z,26.2168,-96.4998,4.0,7.407806693,172.2420295,9.13,'11111222,11111222,11111222' 
TABS,ioos:station:wmo:42045:1,2012-01-04T06:00:00Z,26.2168,-96.4998,4.0,8.033181188,171.2649139,9.99,'11111222,11111222,11111222' 
TABS,ioos:station:wmo:42045:1,2012-01-04T06:30:00Z,26.2168,-96.4998,4.0,8.057096251,167.9650818,9.96,'11111222,11111222,11111222' 
TABS,ioos:station:wmo:42045:1,2012-01-04T07:00:00Z,26.2168,-96.4998,4.0,8.489905771,168.518246,10.32,'11111222,11111222,11111222' 
TABS,ioos:station:wmo:42045:1,2012-01-04T07:30:00Z,26.2168,-96.4998,4.0,8.64370291,172.0201154,9.93,'11111222,11111222,11111222' 
TABS,ioos:station:wmo:42045:1,2012-01-04T08:00:00Z,26.2168,-96.4998,4.0,8.796590248,171.5016715,10.45,'11111222,11111222,11111222' 
TABS,ioos:station:wmo:42045:1,2012-01-04T08:30:00Z,26.2168,-96.4998,4.0,8.92758646,169.2189399,11.19,'11111222,11111222,11111222' 
TABS,ioos:station:wmo:42045:1,2012-01-04T09:00:00Z,26.2168,-96.4998,4.0,9.454972237,171.0559581,11.26,'11111222,11111222,11111222' 
TABS,ioos:station:wmo:42045:1,2012-01-04T09:30:00Z,26.2168,-96.4998,4.0,9.511177635,171.2311687,10.98,'11111222,11111222,11111222' 
TABS,ioos:station:wmo:42045:1,2012-01-04T10:00:00Z,26.2168,-96.4998,4.0,9.851116688,171.0064391,11.57,'11111222,11111222,11111222' 
TABS,ioos:station:wmo:42045:1,2012-01-04T10:30:00Z,26.2168,-96.4998,4.0,9.821486649,170.97908,11.25,'11111222,11111222,11111222' 
TABS,ioos:station:wmo:42045:1,2012-01-04T11:00:00Z,26.2168,-96.4998,4.0,9.849152248,169.0553852,11.69,'11111222,11111222,11111222' 
TABS,ioos:station:wmo:42045:1,2012-01-04T11:30:00Z,26.2168,-96.4998,4.0,9.553245522,170.4195922,11.18,'11111222,11111222,11111222' 
TABS,ioos:station:wmo:42045:1,2012-01-04T12:00:00Z,26.2168,-96.4998,4.0,9.142351995,170.2391226,10.96,'11111222,11111222,11111222' 
TABS,ioos:station:wmo:42045:1,2012-01-04T12:30:00Z,26.2168,-96.4998,4.0,8.654623042,168.8071547,10.3,'11111222,11111222,11111222' 
TABS,ioos:station:wmo:42045:1,2012-01-04T13:00:00Z,26.2168,-96.4998,4.0,9.234717104,162.3501275,10.84,'11111222,11111222,11111222' 
TABS,ioos:station:wmo:42045:1,2012-01-04T13:30:00Z,26.2168,-96.4998,4.0,8.717849505,168.0845013,10.18,'11111222,11111222,11111222' 
TABS,ioos:station:wmo:42045:1,2012-01-04T14:00:00Z,26.2168,-96.4998,4.0,9.052739917,171.359931,10.51,'11111222,11111222,11111222' 
TABS,ioos:station:wmo:42045:1,2012-01-04T14:30:00Z,26.2168,-96.4998,4.0,8.345423896,161.1962208,9.87,'11111222,11111222,11111222' 
TABS,ioos:station:wmo:42045:1,2012-01-04T15:00:00Z,26.2168,-96.4998,4.0,8.965740349,160.857987,10.79,'11111222,11111222,11111222' 
TABS,ioos:station:wmo:42045:1,2012-01-04T15:30:00Z,26.2168,-96.4998,4.0,7.840229588,157.8188769,9.25,'11111222,11111222,11111222' 
TABS,ioos:station:wmo:42045:1,2012-01-04T16:00:00Z,26.2168,-96.4998,4.0,7.690078023,160.0808054,8.77,'11111222,11111222,11111222' 
TABS,ioos:station:wmo:42045:1,2012-01-04T16:30:00Z,26.2168,-96.4998,4.0,7.161766542,159.3131236,8.29,'11111222,11111222,11111222' 
TABS,ioos:station:wmo:42045:1,2012-01-04T17:00:00Z,26.2168,-96.4998,4.0,7.94979874,159.9925206,9.61,'11111222,11111222,11111222' 
TABS,ioos:station:wmo:42045:1,2012-01-04T17:30:00Z,26.2168,-96.4998,4.0,7.473024823,160.8621772,8.77,'11111222,11111222,11111222' 
TABS,ioos:station:wmo:42045:1,2012-01-04T18:00:00Z,26.2168,-96.4998,4.0,7.346291581,158.6043755,9.1,'11111222,11111222,11111222' 
TABS,ioos:station:wmo:42045:1,2012-01-04T18:30:00Z,26.2168,-96.4998,4.0,6.393879886,157.5665121,7.55,'11111222,11111222,11111222' 